Regional Weather Roundup
Issued by NWS Newport/Morehead, NC

Current Version | Previous Version | Graphics & Text | Print | Product List | Glossary Off
Versions: 1 2 3 4 5 6 7 8 9 10 11 12 13 14 15 16 17 18 19 20 21 22 23 24 25 26 27 28 29 30 31 32 33 34 35 36 37 38 39 40 41 42 43 44 45 46 47 48 49 50

000
ASUS42 KMHX 241222
RWRMHX
WEATHER ROUNDUP FOR EASTERN NORTH CAROLINA
NATIONAL WEATHER SERVICE NEWPORT/MOREHEAD CITY NC
800 AM EDT FRI OCT 24 2014

NOTE: "FAIR" INDICATES FEW OR NO CLOUDS BELOW 12,000 FEET
WITH NO SIGNIFICANT WEATHER AND/OR OBSTRUCTIONS TO VISIBILITY

NCZ015>017-031-032-045>047-102-103-241300-
NORTH COAST

CITY           SKY/WX    TMP DP  RH WIND       PRES   REMARKS
EDENTON        PTCLDY    51  46  82 NW7       30.00R
ELIZABETH CITY PTCLDY    50  43  77 W7        29.97F
KITTY HAWK     MOSUNNY   55  46  73 NW6       29.95R
MANTEO         PTCLDY    56  47  70 NW10G16   29.97R

$$

NCZ045>047-081-094-103-104-241300-
CENTRAL COAST

CITY           SKY/WX    TMP DP  RH WIND       PRES   REMARKS
FRISCO         PTCLDY    57  49  74 N9G20     29.97R
SWANQUARTER      N/A     52 N/A N/A NW7       29.97

$$

NCZ095-097-098-100-101-241300-
SOUTHERN COAST

CITY           SKY/WX    TMP DP  RH WIND       PRES   REMARKS
BEAUFORT       PTCLDY    54  47  77 N7        30.01R
CEDAR ISLAND     N/A     61 N/A N/A NW12G21   30.03
JACKSONVILLE   MOCLDY    47  44  90 W3        30.02R
PINEY ISLAND   MOSUNNY   60  48  64 N9        29.99R
WILMINGTON     MOCLDY    49  45  86 CALM      30.02S


$$

NCZ011>013-027>030-043-044-078>080-089-090>093-098-241300-
COASTAL PLAIN

CITY           SKY/WX    TMP DP  RH WIND       PRES   REMARKS
AHOSKIE        CLEAR     44  42  91 CALM      30.01S
CLINTON        CLOUDY    47  46  94 CALM      30.03S
ELIZABETHTOWN  CLOUDY    48  43  83 CALM      30.04R
GOLDSBORO      CLOUDY    48  47  97 W5        30.01R
GREENVILLE     MOCLDY    46  45  93 CALM      30.03S
HAVELOCK       PTCLDY    51  46  83 CALM      30.02R
KENANSVILLE    CLOUDY    47  44  88 N3        30.04S
KINSTON        MOCLDY    45  45 100 CALM      30.03R
NEW BERN       PTCLDY    51  45  79 NW5       30.03R
RICHLANDS      MOCLDY    46  43  87 N3        30.03S
ROCKY MOUNT    MOCLDY    47  42  83 CALM      30.02S
WASHINGTON     MOCLDY    48  45  88 CALM      30.01S
WHITEVILLE     MOCLDY    49  44  84 CALM      30.04R

$$

AMZ130-135-150-152-154-156-158-170-250-252-270-ANZ085-086-088-633-658-670-241300-
MARINE OBSERVATIONS

STATION/POSITION TIME  TEMP    WIND        PRES    WAVE   SWELL
                       AIR SEA DIR/SP/G            HT/PER HT/PER
                 (UTC) (F)     (DEG/KT/KT) (MB)    (FT/S) (FT/S)
CHESAPEAKE LIGHT 1200   59     330/ 26/ 28 1014.3
64 E VA BEACH    1200   62 66  320/ 19/ 23 1012.1    6/ 6   2/14
DUCK             1200   54 66  310/ 14/ 17 1013.6
2 E DUCK         1200                        N/A     4/ 6
10 NE DUCK       1200      67                N/A     5/ 6   2/11
OREGON INLET     1200   57 64  310/ 12/ 16 1014.2
13E OREGON INLT  1200      70                N/A     6/ 7   2/11
HATTERAS CG      1200   59 64  340/ 18/ 22 1015.3
DIAMOND BUOY     1200   62     320/ 17/ 23 1014.6    4/ 6   2/ 8
17 S OCRACOKE    NOT AVBL
CAPE LOOKOUT     1200   57     360/ 10/ 12 1015.7
BEAUFORT LAB     1200   56 67  360/  9/ 12 1015.3
30 SE NEW RIVER  1200   65 75   10/ 14/ 16 1015.1    4/10   3/10
5 SE WRIGHTSVLE  1200   54 72   10/ 17/ 19   N/A
225 S CAPE HAT   1148   72 77  300/ 10/ 12 1015.2    6/10   5/10
41 SE CHARLESTON 1200   68 78   20/  6/ 10 1016.1    3/11   2/11

$$



USA.gov is the U.S. government's official web portal to all federal, state and local government web resources and services.